Location: Middlebury
(44.0153°N, 73.1678°W)
Time: 11:19:23
(UTC-04:00)

QB50P2 - Pass Details

Date: 26 June 2024
Orbit: 561 x 578 km, 98.0° (Epoch: 18 July)

Event Time Altitude Azimuth Distance (km) Brightness Sun altitude
Rises 04:28:58 0° 2° (N) 2,765 ? -6.8°
Reaches altitude 10° 04:31:20 10° 350° (N) 1,863 ? -6.5°
Maximum altitude 04:34:44 27° 292° (WNW) 1,099 ? -6.1°
Drops below altitude 10° 04:38:08 10° 234° (SW) 1,851 ? -5.6°
Enters shadow 04:38:50 - 229° (SW) 2,107 ? -5.5°
